Location: Newark
(61.5000°N, 23.7667°E)
Time: 11:32:48
(UTC+00:00)

UNISAT 6 - Visible Passes

Search period start: 18 November 2019 00:00
Search period end: 28 November 2019 00:00
Orbit: 607 x 689 km, 97.7° (Epoch: 17 November)

Date Brightness Start Highest point End Pass type
(mag) Time Alt. Az. Time Alt. Az. Time Alt. Az.
18 Nov ? 03:41:14 10° E 03:44:15 18° NE 03:47:18 10° N visible
18 Nov ? 05:15:48 10° SE 05:20:11 60° ENE 05:24:43 10° NNW visible
19 Nov ? 04:06:21 10° ESE 04:09:56 24° NE 04:13:35 10° N visible
19 Nov ? 05:41:39 10° SSE 05:46:08 88° ENE 05:50:45 10° NNW visible
20 Nov ? 02:58:34 10° NE 03:00:10 12° NNE 03:01:45 10° NNE visible
20 Nov ? 04:31:40 10° ESE 04:35:40 32° NE 04:39:46 10° N visible
21 Nov ? 03:23:10 10° ENE 03:25:43 15° NE 03:28:20 10° N visible
21 Nov ? 04:57:11 10° SE 05:01:29 46° ENE 05:05:54 10° N visible
22 Nov ? 03:48:07 10° E 03:51:21 20° NE 03:54:40 10° N visible
22 Nov ? 05:22:54 10° SSE 05:27:22 67° ENE 05:31:59 10° NNW visible
23 Nov ? 02:41:32 10° NNE 02:41:42 10° NNE 02:41:53 10° NNE visible
23 Nov ? 04:13:17 10° ESE 04:17:03 26° NE 04:20:53 10° N visible
23 Nov ? 05:48:49 10° SSE 05:53:21 83° WSW 05:58:00 10° NNW visible
24 Nov ? 03:05:14 10° ENE 03:07:15 13° NE 03:09:15 10° N visible
24 Nov ? 04:38:40 10° ESE 04:42:49 36° ENE 04:47:04 10° N visible
25 Nov ? 03:29:59 10° E 03:32:50 16° NE 03:35:42 10° N visible
25 Nov ? 05:04:15 10° SE 05:08:39 51° ENE 05:13:11 10° NNW visible
26 Nov ? 03:55:01 10° E 03:58:29 22° NE 04:02:00 10° N visible
26 Nov ? 05:30:02 10° SSE 05:34:34 76° ENE 05:39:15 10° NNW visible
27 Nov ? 02:47:35 10° NE 02:48:47 11° NNE 02:49:59 10° NNE visible
27 Nov ? 04:20:15 10° ESE 04:24:11 29° NE 04:28:12 10° N visible
27 Nov ? 05:56:00 10° S 06:00:34 74° WSW 06:05:16 10° NNW visible
